[[{"header":{"parameterUnit":"m.s-1","parameterCategory":1,"la1":30.2991,"la2":30.254,"lo1":-89.0895,"lo2":-89.0444,"dy":0.0017,"dx":0.0017,"nx":28,"ny":28,"refTime":"2025-05-25T21:00:00:Z","depth":0,"parameterNumber":2,"parameterNumberName":"U-component_of_WINDS"},"data":[0,0,0,0,0,0,0,0,0,0,0,0,0,0,0,0,0,0,0,0,0,0,0,0,0,0,0,0,0,0,0,0,0,0,0,0,0,0,0,0,0,0,0,0,0,0,0,0,0,0,0,0,0,0,0,0,0,0,-0.1229,-0.1228,0,-0.1125,-0.1124,-0.1123,-0.1066,-0.1066,-0.1066,-0.1066,-0.096,-0.0957,-0.0955,0,0,0,0,0,0,0,0,0,0,0,0,0,-0.1379,-0.1377,-0.1229,-0.1227,-0.1226,-0.1125,-0.1124,-0.1122,-0.1066,-0.1066,-0.1066,-0.1065,-0.0961,-0.0958,-0.0954,0,0,0,0,0,0,0,0,0,0,0,0,0,-0.1299,-0.1376,-0.1229,-0.1186,-0.1181,-0.1126,-0.1124,-0.1122,-0.1066,-0.1066,-0.1066,-0.1065,-0.0962,-0.0958,-0.0954,-0.0934,0,0,-0.0942,-0.094,0,0,0,0,0,0,0,0,-0.1303,-0.1293,-0.1193,-0.1189,-0.1183,-0.1108,-0.1138,-0.1059,-0.1066,-0.111,-0.1066,-0.1065,-0.1009,-0.1002,-0.0983,-0.0929,-0.0924,-0.0941,-0.0939,-0.0937,-0.0936,0,0,0,0,0,0,0,-0.1309,-0.1297,-0.1188,-0.1192,-0.1186,-0.1172,-0.116,-0.1123,-0.1062,-0.1106,-0.1101,-0.109,-0.1007,-0.0987,-0.098,-0.0923,-0.0942,-0.0938,-0.0936,-0.0934,-0.0848,-0.0849,0,0,0,0,0,0,-0.1321,-0.1302,-0.1191,-0.1185,-0.1244,-0.117,-0.1157,-0.1132,-0.1062,-0.1051,-0.109,-0.1088,-0.0994,-0.0984,-0.0976,-0.0948,-0.0937,-0.0934,-0.0931,-0.0848,-0.0849,-0.0849,0,0,0,0,0,0,-0.1325,-0.1312,-0.1195,-0.1242,-0.1226,-0.1167,-0.1141,-0.1131,-0.111,-0.1051,-0.104,-0.1081,-0.0993,-0.0981,-0.0945,-0.0944,-0.0932,-0.0928,-0.0848,-0.0848,-0.0849,-0.0892,0,0,0,0,0,0,-0.1329,-0.1314,-0.1305,-0.1242,-0.1224,-0.1166,-0.1141,-0.1129,-0.1104,-0.1099,-0.1039,-0.1029,-0.0992,-0.0951,-0.0941,-0.0938,-0.0925,-0.0848,-0.0848,-0.0849,-0.0891,-0.0894,-0.0897,0,0,0,0,0,-0.1335,-0.1321,-0.1305,-0.1291,-0.1212,-0.1166,-0.1155,-0.1113,-0.1104,-0.1095,-0.1057,-0.1031,-0.0946,-0.0948,-0.0936,-0.0932,-0.0848,-0.0848,-0.0849,-0.0889,-0.0893,-0.0897,0,0,0,0,0,0,-0.1385,-0.1312,-0.1293,-0.1258,-0.1219,-0.1156,-0.1143,-0.1119,-0.1081,-0.1078,-0.1028,-0.1015,-0.0983,-0.0954,-0.0958,-0.0909,-0.0894,-0.0892,-0.0929,-0.0932,-0.0935,-0.0943,-0.0922,0,0,0,0,0,-0.1392,-0.136,-0.1298,-0.1274,-0.1255,-0.1203,-0.1181,-0.1152,-0.1109,-0.1092,-0.1051,-0.101,-0.0975,-0.0952,-0.0916,-0.0886,-0.0873,-0.0878,-0.0881,-0.0883,-0.0882,-0.0865,-0.0867,-0.085,-0.085,-0.085,0,0,-0.1406,-0.1362,-0.1345,-0.1283,-0.1249,-0.1217,-0.1189,-0.1157,-0.1133,-0.1087,-0.105,-0.1019,-0.097,-0.0938,-0.0921,-0.0912,-0.0884,-0.0884,-0.0887,-0.0883,-0.0866,-0.0867,-0.0869,-0.085,-0.085,-0.085,0,0,-0.1415,-0.1379,-0.1355,-0.1321,-0.127,-0.1236,-0.123,-0.1171,-0.1149,-0.1111,-0.1076,-0.1048,-0.0987,-0.0954,-0.0929,-0.0928,-0.0903,-0.0918,-0.0933,-0.0918,-0.0919,-0.092,-0.092,-0.092,-0.0917,-0.0917,-0.0917,0,-0.1439,-0.139,-0.1346,-0.1316,-0.129,-0.1247,-0.1223,-0.1192,-0.1132,-0.1115,-0.1106,-0.103,-0.0994,-0.0953,-0.0953,-0.0934,-0.0927,-0.0924,-0.0922,-0.0923,-0.0923,-0.0922,-0.0922,-0.0919,-0.0919,-0.0919,-0.0918,0,-0.1423,-0.1389,-0.1376,-0.1319,-0.1291,-0.1265,-0.1217,-0.1195,-0.1169,-0.1136,-0.1098,-0.1054,-0.1008,-0.0997,-0.0971,-0.0953,-0.0949,-0.0932,-0.0916,-0.0928,-0.0926,-0.0926,-0.0922,-0.0921,-0.0921,-0.092,0,0,-0.146,-0.1379,-0.1375,-0.1349,-0.1289,-0.1263,-0.1235,-0.119,-0.1172,-0.1133,-0.1108,-0.1058,-0.1042,-0.1014,-0.0985,-0.0971,-0.0974,-0.0955,-0.0953,-0.096,-0.0952,-0.0965,-0.0965,-0.0957,-0.0957,-0.0957,-0.0956,0,-0.1461,-0.1407,-0.1367,-0.1329,-0.1298,-0.1258,-0.1233,-0.1195,-0.1164,-0.1133,-0.1099,-0.1065,-0.1046,-0.1029,-0.1014,-0.0977,-0.0971,-0.0976,-0.0934,-0.0933,-0.0947,-0.0964,-0.0978,-0.0979,-0.0955,-0.0955,-0.0955,0,-0.1455,-0.1416,-0.1375,-0.132,-0.1306,-0.1284,-0.124,-0.1212,-0.1168,-0.1146,-0.1116,-0.1086,-0.1055,-0.1042,-0.1,-0.1004,-0.0985,-0.0964,-0.0963,-0.0957,-0.0944,-0.0959,-0.0978,-0.0979,-0.0953,-0.0953,-0.0953,0,-0.1486,-0.1425,-0.1392,-0.1371,-0.1305,-0.1292,-0.1264,-0.1219,-0.1196,-0.1158,-0.1142,-0.1101,-0.1079,-0.1049,-0.1008,-0.1003,-0.097,-0.0954,-0.0952,-0.0953,-0.0946,-0.0947,-0.0963,-0.0934,-0.0934,-0.0934,-0.0934,0,-0.1492,-0.1468,-0.1405,-0.1385,-0.1358,-0.1313,-0.1288,-0.1257,-0.1218,-0.1192,-0.1154,-0.1131,-0.1079,-0.105,-0.1018,-0.0988,-0.0978,-0.096,-0.0952,-0.0963,-0.0966,-0.095,-0.0949,-0.0934,-0.0934,-0.0934,-0.0934,0,-0.1522,-0.1479,-0.1441,-0.1382,-0.1367,-0.135,-0.13,-0.128,-0.1247,-0.1215,-0.1204,-0.1153,-0.1117,-0.1074,-0.1023,-0.1002,-0.0974,-0.0962,-0.0989,-0.0984,-0.0985,-0.0985,-0.099,-0.0989,-0.0962,-0.0962,-0.0962,0,-0.1528,-0.1509,-0.1449,-0.1428,-0.1402,-0.1369,-0.1345,-0.13,-0.1276,-0.1225,-0.1211,-0.1172,-0.1138,-0.1082,-0.104,-0.1002,-0.0988,-0.0993,-0.0982,-0.0995,-0.0989,-0.099,-0.0988,-0.0996,-0.0996,-0.0997,-0.0997,0,-0.1544,-0.1524,-0.1489,-0.1448,-0.142,-0.1385,-0.1349,-0.1335,-0.1283,-0.1258,-0.122,-0.1194,-0.1143,-0.1104,-0.1061,-0.1033,-0.1007,-0.1001,-0.0998,-0.1009,-0.1026,-0.1017,-0.0997,-0.1001,-0.1,-0.1,-0.1,-0.1,-0.1562,-0.1544,-0.1498,-0.1462,-0.143,-0.1397,-0.1375,-0.134,-0.1308,-0.1262,-0.1238,-0.1201,-0.1158,-0.1097,-0.107,-0.1041,-0.1032,-0.1028,-0.1027,-0.1027,-0.103,-0.1031,-0.1033,-0.1033,-0.1033,-0.1032,-0.1032,0,-0.1576,-0.1545,-0.1512,-0.1463,-0.1434,-0.1412,-0.1371,-0.1349,-0.1317,-0.1279,-0.1246,-0.1204,-0.1167,-0.1123,-0.1083,-0.1068,-0.1055,-0.1059,-0.106,-0.1054,-0.1041,-0.1047,-0.107,-0.107,-0.107,-0.107,-0.107,-0.107,-0.158,-0.1548,-0.1523,-0.1474,-0.1444,-0.1407,-0.1385,-0.1355,-0.1325,-0.1279,-0.1248,-0.1219,-0.1179,-0.1137,-0.1102,-0.109,-0.1077,-0.1085,-0.107,-0.1058,-0.1055,-0.1052,-0.1057,-0.1083,-0.1083,-0.1086,-0.1086,-0.1086]},{"header":{"parameterUnit":"m.s-1","parameterCategory":1,"la1":30.2991,"la2":30.254,"lo1":-89.0895,"lo2":-89.0444,"dy":0.0017,"dx":0.0017,"nx":28,"ny":28,"refTime":"2025-05-25T21:00:00:Z","depth":0,"parameterNumber":3,"parameterNumberName":"V-component_of_WINDS"},"data":[0,0,0,0,0,0,0,0,0,0,0,0,0,0,0,0,0,0,0,0,0,0,0,0,0,0,0,0,0,0,0,0,0,0,0,0,0,0,0,0,0,0,0,0,0,0,0,0,0,0,0,0,0,0,0,0,0,0,4.7312,4.7312,0,4.7291,4.7291,4.729,4.7282,4.7282,4.7282,4.7282,4.7257,4.7256,4.7256,0,0,0,0,0,0,0,0,0,0,0,0,0,4.7344,4.7343,4.7312,4.7312,4.7312,4.7291,4.7291,4.729,4.7282,4.7282,4.7282,4.7282,4.7257,4.7256,4.7256,0,0,0,0,0,0,0,0,0,0,0,0,0,4.7327,4.7343,4.7312,4.7305,4.7304,4.7291,4.7291,4.729,4.7282,4.7282,4.7282,4.7282,4.7257,4.7256,4.7255,4.7247,0,0,4.7252,4.7252,0,0,0,0,0,0,0,0,4.7328,4.7326,4.7306,4.7305,4.7304,4.7289,4.7293,4.7276,4.7282,4.729,4.7282,4.7282,4.7267,4.7266,4.7261,4.7246,4.7245,4.7252,4.7251,4.7251,4.7251,0,0,0,0,0,0,0,4.7329,4.7327,4.7304,4.7306,4.7305,4.7302,4.73,4.7289,4.7278,4.7289,4.7289,4.7286,4.7267,4.7262,4.7261,4.7245,4.7252,4.7251,4.725,4.725,4.7223,4.7223,0,0,0,0,0,0,4.7332,4.7328,4.7304,4.7303,4.7317,4.7302,4.7299,4.7294,4.7279,4.7276,4.7286,4.7286,4.7264,4.7262,4.726,4.725,4.7251,4.725,4.7249,4.7223,4.7223,4.7223,0,0,0,0,0,0,4.7332,4.733,4.7305,4.7315,4.7312,4.7301,4.7295,4.7293,4.7289,4.7276,4.7274,4.7284,4.7264,4.7261,4.7251,4.7249,4.7249,4.7249,4.7223,4.7223,4.7223,4.723,0,0,0,0,0,0,4.7333,4.733,4.7327,4.7315,4.7311,4.7297,4.7295,4.7293,4.7287,4.7287,4.7273,4.7271,4.7264,4.7253,4.725,4.7247,4.7248,4.7223,4.7223,4.7223,4.723,4.723,4.723,0,0,0,0,0,4.7335,4.7329,4.7327,4.7324,4.7308,4.7297,4.7295,4.7288,4.7287,4.7284,4.7276,4.7272,4.725,4.7252,4.7248,4.7246,4.7223,4.7223,4.7223,4.7229,4.723,4.723,0,0,0,0,0,0,4.7339,4.7327,4.7325,4.7315,4.7308,4.7296,4.7291,4.7288,4.7279,4.7279,4.7269,4.7266,4.7257,4.725,4.7253,4.7238,4.7236,4.7235,4.7242,4.7242,4.7243,4.7244,4.7247,0,0,0,0,0,4.734,4.7333,4.7322,4.7315,4.7311,4.7302,4.7297,4.7293,4.7284,4.728,4.7271,4.7262,4.7253,4.7247,4.7239,4.7229,4.7226,4.7226,4.7226,4.7226,4.7225,4.7221,4.722,4.7222,4.7222,4.7222,0,0,4.7339,4.7332,4.7328,4.7316,4.7309,4.7302,4.7299,4.7291,4.7286,4.7278,4.7269,4.7262,4.7251,4.7242,4.7237,4.7236,4.7224,4.7226,4.7226,4.7225,4.722,4.722,4.722,4.7222,4.7222,4.7222,0,0,4.7336,4.7329,4.7323,4.7317,4.7308,4.7302,4.73,4.729,4.7285,4.7276,4.727,4.7263,4.7248,4.7241,4.7235,4.7231,4.7226,4.7228,4.7229,4.7225,4.7225,4.7224,4.7223,4.7223,4.7228,4.7228,4.7228,0,4.7336,4.7326,4.732,4.7313,4.7308,4.7302,4.7296,4.729,4.7278,4.7274,4.7274,4.7255,4.7248,4.7237,4.7236,4.7231,4.723,4.7229,4.7225,4.7225,4.7225,4.7224,4.7223,4.7228,4.7228,4.7228,4.7228,0,4.7328,4.7321,4.7317,4.7307,4.7301,4.7294,4.7287,4.7282,4.7278,4.7273,4.7263,4.7254,4.7244,4.7241,4.7236,4.723,4.723,4.7227,4.7226,4.7225,4.7224,4.7223,4.7228,4.7228,4.7228,4.7228,0,0,4.7325,4.7313,4.7312,4.7308,4.7298,4.7292,4.7285,4.7276,4.7273,4.7265,4.7259,4.7247,4.7246,4.7239,4.7234,4.723,4.7228,4.7228,4.7228,4.7229,4.7221,4.7223,4.7222,4.7226,4.7226,4.7225,4.7222,0,4.732,4.7308,4.7304,4.7294,4.7288,4.7284,4.7278,4.7271,4.7266,4.726,4.7253,4.7246,4.7244,4.724,4.7236,4.7229,4.7226,4.7229,4.722,4.7219,4.7223,4.7222,4.7223,4.722,4.7221,4.7221,4.7221,0,4.7312,4.7306,4.7296,4.7289,4.7286,4.7281,4.7273,4.7267,4.7259,4.7256,4.725,4.7246,4.7238,4.7238,4.7228,4.723,4.7226,4.7222,4.7222,4.7221,4.722,4.722,4.7219,4.7219,4.722,4.722,4.7221,0,4.7311,4.73,4.7294,4.729,4.7281,4.7278,4.7273,4.7266,4.7262,4.7255,4.7252,4.7244,4.7239,4.7233,4.7227,4.7227,4.7218,4.7216,4.7214,4.7215,4.7212,4.7212,4.721,4.721,4.721,4.721,4.721,0,4.7306,4.73,4.7294,4.7289,4.7283,4.7278,4.7272,4.7267,4.7261,4.7256,4.7251,4.7246,4.7238,4.7232,4.7227,4.722,4.7217,4.7214,4.7213,4.7215,4.7215,4.7211,4.7211,4.721,4.721,4.721,4.721,0,4.7304,4.7299,4.7292,4.7284,4.7282,4.7278,4.7271,4.7267,4.7262,4.7256,4.7254,4.7246,4.7239,4.7233,4.7222,4.7219,4.7212,4.721,4.7215,4.7214,4.7213,4.7213,4.7209,4.7208,4.7208,4.7208,4.7208,0,4.7301,4.7297,4.7289,4.7286,4.7282,4.7277,4.7273,4.7267,4.7263,4.7255,4.7252,4.7245,4.7239,4.7228,4.7221,4.7214,4.7212,4.7211,4.7211,4.7213,4.7212,4.7213,4.7212,4.7211,4.7211,4.7211,4.7211,0,4.7296,4.7294,4.7289,4.7283,4.7279,4.7274,4.7268,4.7266,4.726,4.7255,4.7249,4.7244,4.7235,4.7228,4.7221,4.7216,4.7213,4.7212,4.7211,4.7212,4.7215,4.7214,4.7216,4.7211,4.7211,4.7211,4.7211,4.7211,4.7293,4.7289,4.7284,4.7279,4.7275,4.7271,4.7267,4.7262,4.7257,4.725,4.7247,4.7241,4.7234,4.7224,4.722,4.7214,4.7213,4.7212,4.7212,4.7211,4.7212,4.7217,4.7213,4.7213,4.7213,4.7213,4.7213,0,4.7288,4.7285,4.728,4.7274,4.727,4.7268,4.7263,4.7259,4.7254,4.7249,4.7244,4.7237,4.7231,4.7224,4.7218,4.7215,4.7213,4.7213,4.7213,4.7212,4.7213,4.7214,4.7215,4.7215,4.7215,4.7215,4.7215,4.7215,4.7285,4.7279,4.7277,4.727,4.7266,4.7261,4.7258,4.7254,4.725,4.7243,4.7238,4.7235,4.7229,4.7223,4.7217,4.7215,4.7213,4.7214,4.7212,4.7212,4.7212,4.7212,4.7213,4.7213,4.7213,4.7211,4.7211,4.7211]}]]